CZ-6A DEB, 54902

Orbit data source: Space-Track

CZ-6A DEB, 54902 is space debris in SSO originally from a launch on Fri, 11 Nov 2022 UTC launched from the Taiyaun Space Center, China (TSC). Debris objects in space refer to the collection of defunct objects orbiting the Earth. Examples of debris include non-operational satellites, rocket bodies, and fragments generated from explosions, collisions, or faulty payload assembly.

Loading next visibility...
Identifier
54902, 2022-151QP
Orbit
SSO
Country
Flag of CNCN / PRC
Related business
Manufacturer
SAST
Mission
Spacecraft
Bus & Motor
Unknown
Mass
Unknown
Launch date (UTC)
2022-11-11 (4 years ago)
Launch vehicle
Unknown
Launch site
Taiyaun Space Center, China (TSC)
Object type
Payload
Rocket body
Debris
Shape & HBR
Unknown shape, 0.1 m
Radar Cross Section
Medium (>0.1 m² and <1 m²)

Expand to show TLE details & history
Last TLE update: 2 days ago

TLE from 2 days ago
0 CZ-6A DEB
1 54902U 22151QP  26171.17283793  .00042161  00000-0  34557-2 0  9998
2 54902  98.6104 249.1764 0038137 219.8798 139.9618 14.98543699191229
Epoch: 2026-06-20T04:08Z
TLE epoch observation values (Epoch: 2026-06-20T04:08:53.197Z)
Latitude
-0.00007°
Longitude
-81.43651°
Altitude
594.757 km
Speed
7.551 km/s
True Right ascension
16h 36m 42s
True Declination
0° 00' 00"
Sunlit
Object was in full shadow at epoch
Visualization orbit readout
Latitude
Unknown
Longitude
Unknown
Altitude
Unknown
Speed
Unknown
Apparent Right ascension
Unknown
Apparent Declination
Unknown
Sunlit
N/A
Visualization observer readout
Local Sidereal Time
21:35:01
Azimuth
Unknown
Elevation
Unknown
Doppler factor
Unknown
Orbital elements
Apogee altitude
594.937 km
Perigee altitude
541.952 km
Semi-major axis
6,946.582 km
Eccentricity
0.00381
Inclination
98.6104°
RAAN
249.1764°
Arg. of periapsis
219.8798°
True anomaly
140.24191°
Mean anomaly
139.9618°
Eccentric anomaly
140.10196°
Mean motion
3.74875 °/min
Orbital period
96.03 mins
BSTAR
0.0034557
Loading maneuver chart data...
Computing Atmospheric mass density...
Loading historical data...
Loading historical data...
Loading historical data...
Loading historical data...
Loading historical data...
Loading historical data...
Loading historical data...

Documentation

Showing up to 5 results
|